OK4PZ-4 Weather Reports


time (UTC)temp
C
wind
direction
speed
KPH
gust
KPH
rain 1hr
cm
rain 24hr
cm
rain mn
cm
humidity
%
barometer
mb
20260905230022 17 228 4.8 11.3 0.00 0.00 0.00 63 1021.6
20260905215423 18 272 6.4 11.3 0.00 0.00 0.00 61 1021.2
20260905205216 18 232 1.6 4.8 0.00 0.00 0.00 66 1020.8
20260905204823 18 288 3.2 3.2 0.00 0.00 0.00 66 1020.8
20260905194617 19 270 1.6 4.8 0.00 0.00 0.00 63 1019.9
20260905194225 19 225 3.2 6.4 0.00 0.00 0.00 64 1019.9
20260905184018 20 225 0.0 4.8 0.00 0.00 0.00 58 1019.2
20260905173419 22 216 4.8 11.3 0.00 0.00 0.00 51 1018.1
20260905162820 24 248 11.3 19.3 0.00 0.00 0.00 44 1017.5
20260905152220 25 257 12.9 20.9 0.00 0.00 0.00 45 1017.4
20260905142014 24 259 12.9 20.9 0.00 0.00 0.00 47 1017.4
20260905141621 23 262 16.1 22.5 0.00 0.00 0.00 47 1017.3
20260905131415 26 212 14.5 20.9 0.00 0.00 0.00 45 1017.6
20260905120816 25 316 11.3 20.9 0.00 0.00 0.00 47 1018.1
20260905110217 23 234 19.3 20.9 0.00 0.00 0.00 56 1018.2
20260905095617 22 238 9.7 20.9 0.00 0.00 0.00 66 1018.1
20260905085411 22 274 4.8 9.7 0.00 0.00 0.00 100 1018.2
20260905085018 22 254 8.0 11.3 0.00 0.00 0.00 100 1018.1
20260905074812 17 225 0.0 4.8 0.00 0.00 0.00 100 1017.8
20260905074420 17 117 1.6 1.6 0.00 0.00 0.00 100 1017.8
20260905064449 15 184 0.0 3.2 0.00 0.00 0.08 100 1016.9
20260905064335 15 184 0.0 3.2 0.00 0.00 0.08 100 1016.9
20260905063942 15 276 1.6 3.2 0.00 0.00 0.05 100 1017.0
20260905053736 15 270 4.8 4.8 0.00 0.00 0.00 100 1017.3
20260905053343 15 130 0.0 0.0 0.00 0.00 0.00 100 1017.0
20260905053339 15 129 0.0 0.0 0.00 0.00 0.00 100 1016.9
20260905043115 17 147 3.2 9.7 0.00 0.00 0.18 100 1016.6
20260905032516 18 33 8.0 8.0 0.00 0.00 0.10 100 1015.0
20260905021917 19 164 0.0 6.4 0.00 0.00 0.03 86 1014.2
20260905011710 22 50 9.7 24.1 0.00 0.00 0.00 66 1013.4
20260905011317 23 43 11.3 24.1 0.00 0.00 0.00 62 1012.9
20260905001111 26 270 9.7 12.9 0.00 0.00 0.00 50 1011.4
20260905000718 26 270 8.0 16.1 0.00 0.00 0.00 50 1011.3